Home   Weather   Cheltenham   Past weeks
Flag for United Kingdom

Past Weather in Cheltenham, England, United Kingdom — Yesterday and Last 2 Weeks

Now
54 °F

Scattered clouds.


Feels Like: 52 °F
Forecast: 55 / 41 °F
Wind: 6 mph from North

Location: Staverton Private

Current Time: Oct 21, 2019 at 5:01:18 pm

Latest Report: Oct 21, 2019 at 4:20 pm


Visibility: N/A

Pressure: 30.15 "Hg

Humidity: 82%

Dew Point: 48 °F

Location of CheltenhamLocation

Past Weather in Cheltenham — Graph

°F

Cheltenham Temperature Yesterday

Maximum temperature yesterday: 52 °F (at 12:20 pm)
Minimum temperature yesterday: 48 °F (at 9:20 am)
Average temperature yesterday: 51 °F

High & Low Weather Summary for the Past Weeks

 TemperatureHumidityPressure
High63 °F (Oct 6, 3:20 pm)100% (Oct 11, 3:20 pm)30.15 "Hg (Oct 11, 3:20 pm)
Low48 °F (Oct 17, 8:50 am)59% (Oct 6, 3:20 pm)29.42 "Hg (Oct 18, 4:20 pm)
Average56 °F83%29.70 "Hg
* Reported Oct 6 3:20 pm — Oct 21 3:50 pm, Cheltenham. Weather by CustomWeather, © 2019

Note: Actual official high and low records may vary slightly from our data, if they occured in-between our weather recording intervals... More about our weather records

Advertising

Cheltenham Weather History for the Previous 24 Hours

Scroll right to see more
 ConditionsComfort  
Time TempWeatherWind HumidityBarometerVisibility
3:50 pm
Mon, Oct 21
55 °FScattered clouds.7 mph77%30.15 "HgN/A
3:20 pm55 °FScattered clouds.7 mph77%30.15 "HgN/A
2:50 pm54 °FScattered clouds.8 mph82%30.15 "HgN/A
2:20 pm55 °FScattered clouds.8 mph77%30.15 "HgN/A
1:50 pm55 °FScattered clouds.10 mph77%30.15 "HgN/A
1:20 pm55 °FScattered clouds.7 mph77%30.15 "HgN/A
12:50 pm55 °FScattered clouds.7 mph82%30.15 "HgN/A
12:20 pm54 °FScattered clouds.8 mph88%30.15 "HgN/A
11:50 am54 °FBroken clouds.8 mph88%30.15 "HgN/A
11:20 am52 °FScattered clouds.9 mph94%30.15 "HgN/A
10:50 am52 °FScattered clouds.9 mph94%30.15 "HgN/A
10:20 am50 °FPartly sunny.8 mph100%30.15 "HgN/A
9:50 am50 °FDrizzle. Partly sunny.7 mph94%30.12 "HgN/A
9:20 am50 °FDrizzle. Partly sunny.8 mph94%30.12 "Hg6 mi
8:50 am48 °FDrizzle. Partly sunny.8 mph100%30.09 "Hg5 mi
8:20 am48 °FDrizzle. Broken clouds.9 mph100%30.09 "HgN/A
7:50 am48 °FBroken clouds.9 mph100%30.09 "Hg5 mi
6:50 pm
Sun, Oct 20
50 °FScattered showers. Partly cloudy.9 mph88%29.95 "HgN/A
6:20 pm50 °FSprinkles. Partly cloudy.12 mph88%29.95 "HgN/A
5:50 pm52 °FBroken clouds.8 mph77%29.95 "HgN/A
5:20 pm52 °FBroken clouds.7 mph77%29.92 "HgN/A
Weather by CustomWeather, © 2019

See weather overview